AirNav   Everest Fuels
 
 584 users online  

TX1 Aero Estates Seaplane Base
Frankston, Texas, USA

GOING TO FRANKSTON?


FAA INFORMATION EFFECTIVE 06 OCTOBER 2022

Location

FAA Identifier: TX1
Lat/Long: 32-04-45.0300N 095-25-56.9300W
32-04.750500N 095-25.948833W
32.0791750,-95.4324806
(estimated)
Elevation: 345 ft. / 105 m (estimated)
From city: 3 miles NE of FRANKSTON, TX
Time zone: UTC -5 (UTC -6 during Standard Time)
Zip code: 75763

Seaplane Base Operations

Seaplane Base use: Open to the public
Activation date: 03/2018
Control tower: no
ARTCC: FORT WORTH CENTER
FSS: FORT WORTH FLIGHT SERVICE STATION
NOTAMs facility: FTW (NOTAM-D service available)
Attendance: UNATNDD
Wind indicator: yes
Segmented circle: no

Seaplane Base Communications

CTAF: 122.9
WX ASOS at TYR (17 nm N): PHONE 903-535-9105
WX AWOS-3 at JSO (17 nm SE): 119.075 (903-586-0124)

Nearby radio navigation aids

VOR radial/distance  VOR name  Freq  Var
FZTr081/5.0FRANKSTON VOR/DME111.4006E
TYRr179/16.7TYLER VOR/DME114.2006E

 
NDB name  Hdg/Dist  Freq  Var  ID
CROSSROADS086/26.721502ECSZ -.-. ... --..
AMBASSADOR201/34.440407EABG .- -... --.

Seaplane Base Services

Runway Information

Runway 17W/35W

Dimensions: 5268 x 300 ft. / 1606 x 91 m
Surface: water
RUNWAY 17W  RUNWAY 35W
Traffic pattern: leftleft

Seaplane Base Ownership and Management from official FAA records

Ownership: Privately-owned
Owner: AERO ESTATES POA
11668 TAILSPIN TRAIL
FRANKSTON, TX 75763
Phone (817) 798-7757
DENISE WALKER, SECRETARY, POAAE (HOMEOWNERS ASSOC).
Manager: GARNET MCCLURE
11685 PILOT LANE
FRANKSTON, TX 75763
Phone 903-617-7860

Seaplane Base Operational Statistics

Aircraft based on the field: 5
Single engine airplanes: 5
    
Aircraft operations: avg 46/month *
91% local general aviation
9% transient general aviation
* for 12-month period ending 30 March 2019

Additional Remarks

FOR CD CTC FORT WORTH ARTCC AT 817-858-7584.

Instrument Procedures

There are no published instrument procedures at TX1.

Some nearby airports with instrument procedures:

KTYR - Tyler Pounds Regional Airport (17 nm N)
KJSO - Cherokee County Airport (17 nm SE)
F44 - Athens Municipal Airport (21 nm W)
KPSN - Palestine Municipal Airport (23 nm SW)
KRFI - Rusk County Airport (30 nm E)
 
Loc | Ops | Rwys | IFR | FBO | Links
Com | Nav | Svcs | Stats | Notes
Aerial photo
No photo
 
Airport distance calculator
Flying to Aero Estates Seaplane Base? Find the distance to fly.

From to TX1

Sunrise and sunset
Times for 07-Oct-2022
 Local
(UTC-5)
 Zulu
(UTC)
Morning civil twilight06:5611:56
Sunrise07:2112:21
Sunset18:5923:59
Evening civil twilight19:2300:23

Current date and time
Zulu (UTC)  07-Oct-2022 09:28:52
Local (UTC-5)  07-Oct-2022 04:28:52
 
METAR
KJSO 
17nm SE 
070915Z AUTO 36003KT 10SM CLR 24/10 A3017 RMK AO2 T02380095 TSNO
KTYR 
17nm N 
070853Z AUTO 00000KT 10SM CLR 18/12 A3015 RMK AO2 SLP203 T01780117 56004
KF44 
21nm W 
070915Z AUTO 00000KT 10SM CLR 15/12 A3015 RMK AO2
KPSN 
23nm SW 
070915Z AUTO 10SM FEW050 FEW060 FEW070 17/12 A3014 RMK AO2
KRFI 
30nm E 
070915Z AUTO 00000KT 10SM CLR 16/11 A3016 RMK AO2 T01580113
TAF
KTYR 
17nm N 
070520Z 0706/0806 00000KT P6SM SKC FM071500 05005KT P6SM BKN250 FM072000 03007KT P6SM SCT250 FM080200 00000KT P6SM SCT250
NOTAMs
Click for the latest NOTAMs
NOTAMs are issued by the DoD/FAA and will open in a separate window not controlled by AirNav.

 

 
 

Would you like to see your business listed on this page?

 If your business provides an interesting product or service to pilots, flight crews, aircraft, or users of the Aero Estates Seaplane Base, you should consider listing it here.  To start the listing process, click on the button below
 
Add a business
 

Other Pages about Aero Estates Seaplane Base

Update a link
 
Copyright © AirNav, LLC. All rights reserved. Privacy Policy  Contact